Flag for U.S.A. Weather past 2 weeks in Santa Barbara, California, U.S.A.

Now
62 °F

Low clouds.


Feels Like: 62 °F
Forecast: 60 / 72 °F
Wind: 6 mph from Southeast

Location: Santa Barbara Municipal Airport

Current Time: Jul 6, 2015 at 2:22:47 AM

Latest Report: Jul 6, 2015 at 2:03 AM


Visibility: 8 mi

Pressure: 30.02 "Hg

Humidity: 90%

Dew point: 59 °F

Location of Santa BarbaraLocation

Historic Weather in Santa Barbara — Graph

°F

Santa Barbara temperature yesterday

Maximum temperature yesterday: 71 °F (at 3:53 PM)
Minimum temperature yesterday: 62 °F (at 6:53 AM)
Average temperature yesterday: 65 °F

Past Weeks' High & Low Weather Summary

 TemperatureHumidityPressure
High79 °F (Jun 28, 12:53 PM)93% (Jun 22, 3:53 AM)30.04 "Hg (Jun 22, 3:53 AM)
Low54 °F (Jun 22, 5:53 AM)47% (Jun 23, 2:53 PM)29.80 "Hg (Jun 30, 8:53 PM)
Average66 °F77%29.91 "Hg
* Reported Jun 21 12:53 AM — Jul 6 12:53 AM, Santa Barbara, Weather by CustomWeather, © 2015

Note: Actual official high and low records may vary slightly from our data, if they occured in-between our weather recording intervals... More about our weather records

Advertising

Santa Barbara weather history for previous 24 hours

 ConditionsComfort  
Time TempWeatherWind HumidityBarometerVisibility
12:53 AM
Mon, Jul 6
61 °FFog.6 mph93%30.00 "Hg6 mi
11:53 PM
Sun, Jul 5
62 °FLow clouds.6 mph90%30.01 "Hg9 mi
10:53 PM63 °FPassing clouds.8 mph90%30.00 "Hg10 mi
9:53 PM63 °FClear.5 mph87%29.99 "Hg10 mi
8:53 PM62 °FSunny.No wind86%29.96 "Hg10 mi
7:53 PM64 °FSunny.6 mph81%29.95 "Hg10 mi
6:53 PM66 °FSunny.9 mph75%29.94 "Hg10 mi
5:53 PM67 °FSunny.13 mph73%29.94 "Hg10 mi
4:53 PM69 °FSunny.12 mph68%29.95 "Hg10 mi
3:53 PM71 °FPassing clouds.12 mph63%29.97 "Hg10 mi
2:53 PM70 °FPassing clouds.13 mph66%29.97 "Hg10 mi
1:53 PM67 °FOvercast.10 mph73%29.99 "Hg10 mi
12:53 PM66 °FLow clouds.7 mph78%30.00 "Hg10 mi
11:53 AM66 °FLow clouds.7 mph75%30.00 "Hg10 mi
10:53 AM66 °FLow clouds.5 mph75%29.99 "Hg10 mi
9:53 AM65 °FLow clouds.3 mph78%29.98 "Hg10 mi
8:53 AM64 °FLow clouds.3 mph81%29.98 "Hg10 mi
7:53 AM62 °FLow clouds.No wind90%29.98 "Hg9 mi
6:53 AM62 °FLow clouds.6 mph90%29.97 "Hg7 mi
5:53 AM63 °FLow clouds.5 mph87%29.96 "Hg9 mi
4:53 AM63 °FLow clouds.6 mph84%29.94 "Hg10 mi
3:53 AM63 °FLow clouds.6 mph87%29.92 "Hg10 mi
2:53 AM63 °FLow clouds.7 mph87%29.93 "Hg10 mi
Weather by CustomWeather, © 2015

See weather overviewHow to use our weather pages